WN4MDN Weather Reports


Display with metric or nautical units.
time (UTC)temp
F
wind
direction
speed
MPH
gust
MPH
rain 1hr
in
rain 24hr
in
rain mn
in
humidity
%
barometer
mb
20260505204602 78 20 8.0 17.0 0.00 0.00 0.00 69 1014.6
20260505204032 79 75 12.0 16.0 0.00 0.00 0.00 68 1014.6
20260505203535 79 47 10.0 16.0 0.00 0.00 0.00 68 1014.7
20260505203047 79 92 10.0 16.0 0.00 0.00 0.00 68 1014.7
20260505202535 79 36 8.0 16.0 0.00 0.00 0.00 68 1014.8
20260505202034 78 5 8.0 16.0 0.00 0.00 0.00 69 1014.9
20260505201545 78 40 10.0 16.0 0.00 0.00 0.00 68 1014.8
20260505201034 78 30 7.0 14.0 0.00 0.00 0.00 68 1015.0
20260505200534 78 40 10.0 14.0 0.00 0.00 0.00 68 1014.9
20260505200044 79 44 8.0 14.0 0.00 0.00 0.00 68 1014.9
20260505195534 79 32 8.0 17.0 0.00 0.00 0.00 68 1014.8
20260505195032 78 49 9.0 17.0 0.00 0.00 0.00 68 1014.8
20260505194542 78 49 10.0 16.0 0.00 0.00 0.00 69 1014.8
20260505194035 78 33 9.0 14.0 0.00 0.00 0.00 69 1015.0
20260505193534 78 35 9.0 17.0 0.00 0.00 0.00 68 1015.0
20260505193045 79 47 8.0 17.0 0.00 0.00 0.00 68 1015.0
20260505192534 79 36 10.0 16.0 0.00 0.00 0.00 67 1015.0
20260505192034 79 81 7.0 16.0 0.00 0.00 0.00 67 1015.0
20260505191548 79 42 9.0 14.0 0.00 0.00 0.00 66 1015.0
20260505191034 79 360 7.0 14.0 0.00 0.00 0.00 68 1015.0
20260505190536 79 39 10.0 16.0 0.00 0.00 0.00 67 1015.2
20260505190044 79 61 8.0 16.0 0.00 0.00 0.00 68 1015.4
20260505185533 78 44 10.0 16.0 0.00 0.00 0.00 68 1015.5
20260505185035 79 44 7.0 14.0 0.00 0.00 0.00 67 1015.6
20260505184545 79 30 7.0 12.0 0.00 0.00 0.00 68 1015.8
20260505184032 78 42 8.0 14.0 0.00 0.00 0.00 68 1015.8
20260505183534 78 360 8.0 14.0 0.00 0.00 0.00 68 1015.8
20260505183042 78 20 9.0 15.0 0.00 0.00 0.00 68 1015.8
20260505182534 78 360 8.0 15.0 0.00 0.00 0.00 68 1016.0
20260505182032 79 49 9.0 15.0 0.00 0.00 0.00 67 1015.9
20260505181606 79 34 9.0 14.0 0.00 0.00 0.00 64 1015.9
20260505181036 79 41 7.0 17.0 0.00 0.00 0.00 65 1015.9
20260505180534 79 355 7.0 17.0 0.00 0.00 0.00 66 1016.0
20260505180101 80 46 7.0 14.0 0.00 0.00 0.00 65 1016.0
20260505175535 79 59 8.0 14.0 0.00 0.00 0.00 67 1016.0
20260505175032 79 51 8.0 16.0 0.00 0.00 0.00 67 1016.0
20260505174549 79 36 9.0 16.0 0.00 0.00 0.00 66 1016.1
20260505174034 79 63 9.0 16.0 0.00 0.00 0.00 68 1016.1
20260505173533 78 30 7.0 17.0 0.00 0.00 0.00 68 1016.1
20260505173045 79 71 9.0 17.0 0.00 0.00 0.00 67 1016.2
20260505172533 80 42 9.0 14.0 0.00 0.00 0.00 66 1016.1
20260505172034 79 55 9.0 15.0 0.00 0.00 0.00 66 1016.1
20260505171551 79 59 8.0 15.0 0.00 0.00 0.00 68 1016.0
20260505171034 80 63 8.0 13.0 0.00 0.00 0.00 66 1016.0
20260505170533 79 104 7.0 16.0 0.00 0.00 0.00 67 1015.9
20260505170044 79 44 9.0 16.0 0.00 0.00 0.00 65 1016.0
20260505165537 79 77 11.0 17.0 0.00 0.00 0.00 67 1016.0
20260505165034 79 34 10.0 17.0 0.00 0.00 0.00 67 1016.0
20260505164541 79 38 9.0 15.0 0.00 0.00 0.00 68 1016.0
20260505164033 79 20 9.0 15.0 0.00 0.00 0.00 67 1016.1
20260505163531 78 66 9.0 14.0 0.00 0.00 0.00 68 1016.2
20260505163048 78 46 9.0 14.0 0.00 0.00 0.00 66 1016.3
20260505162532 79 44 6.0 16.0 0.00 0.00 0.00 65 1016.3
20260505162034 79 76 8.0 16.0 0.00 0.00 0.00 69 1016.4
20260505161550 78 73 10.0 16.0 0.00 0.00 0.00 69 1016.4
20260505161034 78 60 7.0 13.0 0.00 0.00 0.00 70 1016.3
20260505160535 78 58 9.0 13.0 0.00 0.00 0.00 71 1016.4
20260505153046 78 86 8.0 14.0 0.00 0.00 0.00 68 1016.4
20260505152534 78 74 9.0 16.0 0.00 0.00 0.00 69 1016.4
20260505152033 78 13 8.0 16.0 0.00 0.00 0.00 70 1016.3
20260505151548 78 24 9.0 15.0 0.00 0.00 0.00 69 1016.2
20260505151034 78 24 9.0 15.0 0.00 0.00 0.00 68 1016.3
20260505150533 78 5 9.0 15.0 0.00 0.00 0.00 69 1016.3
20260505140534 77 64 9.0 15.0 0.00 0.00 0.00 73 1016.0
20260505125034 72 360 8.0 14.0 0.00 0.00 0.00 83 1015.7
20260505124546 71 29 6.0 11.0 0.00 0.00 0.00 84 1015.7
20260505124037 71 42 6.0 11.0 0.00 0.00 0.00 85 1015.7
20260505123538 70 23 6.0 10.0 0.00 0.00 0.00 86 1015.9
20260505123050 70 355 5.0 10.0 0.00 0.00 0.00 87 1016.0
20260505122534 69 29 5.0 10.0 0.00 0.00 0.00 88 1015.8
20260505122034 69 22 3.0 8.0 0.00 0.00 0.00 90 1016.0
20260505121546 68 17 0.0 7.0 0.00 0.00 0.00 92 1015.8
20260505121035 67 0 0.0 1.0 0.00 0.00 0.00 93 1015.7
20260505120534 66 0 0.0 0.0 0.00 0.00 0.00 93 1015.7
20260505120104 66 0 0.0 4.0 0.00 0.00 0.00 94 1015.7
20260505115533 65 0 0.0 4.0 0.00 0.00 0.00 94 1015.6
20260505115031 64 349 0.0 3.0 0.00 0.00 0.00 94 1015.4
20260505114554 63 0 0.0 0.0 0.00 0.00 0.00 94 1015.4
20260505114033 63 0 0.0 0.0 0.00 0.00 0.00 94 1015.4
20260505113533 62 0 0.0 0.0 0.00 0.00 0.00 94 1015.5
20260505113041 62 0 0.0 2.0 0.00 0.00 0.00 94 1015.3
20260505112533 61 0 0.0 2.0 0.00 0.00 0.00 94 1015.1
20260505112034 61 338 1.0 3.0 0.00 0.00 0.00 94 1015.0
20260505111547 61 347 1.0 3.0 0.00 0.00 0.00 94 1014.9
20260505111036 61 0 0.0 0.0 0.00 0.00 0.00 94 1014.9
20260505110534 61 0 0.0 0.0 0.00 0.00 0.00 94 1015.0
20260505110106 61 0 0.0 1.0 0.00 0.00 0.00 93 1015.0
20260505102036 60 0 0.0 0.0 0.00 0.00 0.00 93 1014.6
20260505101543 60 0 0.0 0.0 0.00 0.00 0.00 93 1014.5
20260505101034 60 0 0.0 0.0 0.00 0.00 0.00 93 1014.6
20260505100534 60 0 0.0 0.0 0.00 0.00 0.00 93 1014.5
20260505100043 60 0 0.0 3.0 0.00 0.00 0.00 93 1014.4
20260505095534 60 0 0.0 3.0 0.00 0.00 0.00 93 1014.4
20260505095035 60 316 1.0 3.0 0.00 0.00 0.00 93 1014.3
20260505094547 60 346 0.0 2.0 0.00 0.00 0.00 93 1014.1
20260505094034 60 0 0.0 1.0 0.00 0.00 0.00 93 1014.1
20260505093534 60 0 0.0 1.0 0.00 0.00 0.00 93 1014.0
20260505093049 60 0 0.0 0.0 0.00 0.00 0.00 93 1014.1
20260505092534 60 0 0.0 1.0 0.00 0.00 0.00 93 1014.0
20260505092035 60 0 0.0 1.0 0.00 0.00 0.00 93 1014.2
20260505091553 60 0 0.0 1.0 0.00 0.00 0.00 93 1014.1
20260505091036 60 0 0.0 2.0 0.00 0.00 0.00 93 1014.2
20260505090533 60 0 0.0 2.0 0.00 0.00 0.00 93 1014.2
20260505090045 60 0 0.0 0.0 0.00 0.00 0.00 92 1014.1
20260505085534 60 0 0.0 0.0 0.00 0.00 0.00 93 1014.1
20260505085035 60 0 0.0 0.0 0.00 0.00 0.00 93 1014.1
20260505084551 60 0 0.0 0.0 0.00 0.00 0.00 93 1014.0
20260505084057 60 0 0.0 0.0 0.00 0.00 0.00 93 1014.1
20260505083538 60 0 0.0 0.0 0.00 0.00 0.00 93 1014.1
20260505083056 60 0 0.0 0.0 0.00 0.00 0.00 93 1014.0
20260505082534 60 0 0.0 1.0 0.00 0.00 0.00 93 1014.0
20260505082034 60 0 0.0 1.0 0.00 0.00 0.00 93 1013.9
20260505081545 60 0 0.0 1.0 0.00 0.00 0.00 93 1014.0
20260505081035 60 0 0.0 0.0 0.00 0.00 0.00 92 1014.0
20260505080533 60 0 0.0 0.0 0.00 0.00 0.00 92 1013.7
20260505080045 61 0 0.0 0.0 0.00 0.00 0.00 92 1013.9
20260505075535 61 0 0.0 0.0 0.00 0.00 0.00 93 1013.9
20260505075033 61 0 0.0 0.0 0.00 0.00 0.00 93 1013.8
20260505074546 60 0 0.0 1.0 0.00 0.00 0.00 93 1013.9
20260505074031 60 0 0.0 1.0 0.00 0.00 0.00 92 1014.0
20260505073533 61 0 0.0 1.0 0.00 0.00 0.00 92 1014.2
20260505073055 61 0 0.0 0.0 0.00 0.00 0.00 92 1014.2
20260505072534 61 0 0.0 0.0 0.00 0.00 0.00 92 1014.3
20260505072034 61 0 0.0 0.0 0.00 0.00 0.00 92 1014.4
20260505071546 61 0 0.0 0.0 0.00 0.00 0.00 92 1014.5
20260505071034 61 0 0.0 0.0 0.00 0.00 0.00 92 1014.4
20260505070534 61 0 0.0 0.0 0.00 0.00 0.00 92 1014.4
20260505070050 61 0 0.0 0.0 0.00 0.00 0.00 92 1014.6
20260505065534 61 0 0.0 0.0 0.00 0.00 0.00 92 1014.6
20260505065031 61 0 0.0 0.0 0.00 0.00 0.00 92 1014.5
20260505064612 61 0 0.0 0.0 0.00 0.00 0.00 92 1014.5
20260505064033 61 0 0.0 0.0 0.00 0.00 0.00 92 1014.6
20260505063531 61 0 0.0 0.0 0.00 0.00 0.00 92 1014.7
20260505063052 61 0 0.0 0.0 0.00 0.00 0.00 92 1014.8
20260505062533 61 0 0.0 0.0 0.00 0.00 0.00 92 1014.9
20260505062033 61 0 0.0 0.0 0.00 0.00 0.00 92 1014.9
20260505061542 61 0 0.0 0.0 0.00 0.00 0.00 92 1014.8
20260505061036 61 0 0.0 0.0 0.00 0.00 0.00 92 1014.9
20260505060533 61 0 0.0 0.0 0.00 0.00 0.00 92 1014.9
20260505060052 61 0 0.0 2.0 0.00 0.00 0.00 92 1015.0
20260505055533 62 0 0.0 3.0 0.00 0.00 0.00 91 1015.1
20260505055034 62 0 1.0 4.0 0.00 0.00 0.00 91 1015.3
20260505054552 62 309 2.0 4.0 0.00 0.00 0.00 92 1015.4
20260505054034 61 30 1.0 2.0 0.00 0.00 0.00 91 1015.3
20260505053534 61 0 0.0 2.0 0.00 0.00 0.00 91 1015.3
20260505053047 61 0 0.0 1.0 0.00 0.00 0.00 91 1015.2
20260505052534 62 0 0.0 2.0 0.00 0.00 0.00 91 1015.1
20260505052034 62 0 0.0 2.0 0.00 0.00 0.00 91 1015.0
20260505051545 62 30 1.0 2.0 0.00 0.00 0.00 91 1015.1
20260505051032 62 30 1.0 2.0 0.00 0.00 0.00 91 1015.2
20260505050534 62 30 1.0 2.0 0.00 0.00 0.00 91 1015.4
20260505041546 63 0 0.0 2.0 0.00 0.00 0.00 90 1015.7
20260505041034 62 30 0.0 2.0 0.00 0.00 0.00 90 1015.5
20260505040536 62 0 0.0 0.0 0.00 0.00 0.00 89 1015.6
20260505040048 63 0 0.0 0.0 0.00 0.00 0.00 89 1015.5
20260505035533 63 0 0.0 0.0 0.00 0.00 0.00 89 1015.5
20260505035033 63 0 0.0 0.0 0.00 0.00 0.00 89 1015.7
20260505034605 63 0 0.0 0.0 0.00 0.00 0.00 89 1015.7
20260505034033 63 0 0.0 1.0 0.00 0.00 0.00 89 1015.7
20260505033536 63 0 0.0 2.0 0.00 0.00 0.00 88 1015.8
20260505033049 63 0 0.0 2.0 0.00 0.00 0.00 88 1015.8
20260505032532 64 0 0.0 2.0 0.00 0.00 0.00 88 1015.8
20260505032034 64 30 1.0 2.0 0.00 0.00 0.00 88 1015.9
20260505031539 64 30 0.0 0.0 0.00 0.00 0.00 88 1015.9
20260505031034 64 0 0.0 0.0 0.00 0.00 0.00 88 1016.0
20260505030537 65 0 0.0 0.0 0.00 0.00 0.00 87 1016.0
20260505030049 65 0 0.0 0.0 0.00 0.00 0.00 87 1016.0
20260505025535 65 0 0.0 0.0 0.00 0.00 0.00 87 1016.0
20260505025034 65 0 0.0 0.0 0.00 0.00 0.00 87 1015.9
20260505024545 65 0 0.0 0.0 0.00 0.00 0.00 87 1015.8
20260505024034 66 0 0.0 0.0 0.00 0.00 0.00 86 1015.8
20260505023533 66 0 0.0 0.0 0.00 0.00 0.00 86 1015.9
20260505023047 66 0 0.0 0.0 0.00 0.00 0.00 86 1015.9
20260505022534 66 0 0.0 1.0 0.00 0.00 0.00 86 1016.0
20260505022034 67 0 0.0 2.0 0.00 0.00 0.00 86 1016.0
20260505021542 67 0 0.0 2.0 0.00 0.00 0.00 86 1016.0
20260505021034 67 30 1.0 2.0 0.00 0.00 0.00 86 1016.0
20260505020536 67 30 1.0 2.0 0.00 0.00 0.00 86 1015.8
20260505020054 67 30 1.0 2.0 0.00 0.00 0.00 86 1015.9
20260505015532 67 30 1.0 2.0 0.00 0.00 0.00 85 1015.8
20260505015033 67 30 1.0 3.0 0.00 0.00 0.00 85 1015.7
20260505014547 67 30 1.0 3.0 0.00 0.00 0.00 85 1015.7
20260505014036 68 30 2.0 3.0 0.00 0.00 0.00 84 1015.6
20260505013531 68 30 1.0 3.0 0.00 0.00 0.00 84 1015.7
20260505013046 68 30 1.0 3.0 0.00 0.00 0.00 84 1015.8
20260505012536 68 30 0.0 3.0 0.00 0.00 0.00 84 1016.0
20260505012038 68 30 1.0 4.0 0.00 0.00 0.00 84 1016.0
20260505011546 68 30 2.0 4.0 0.00 0.00 0.00 84 1015.8
20260505011033 69 26 2.0 4.0 0.00 0.00 0.00 84 1015.6
20260505010535 69 34 2.0 4.0 0.00 0.00 0.00 83 1015.6
20260505010105 69 34 2.0 5.0 0.00 0.00 0.00 83 1015.5
20260505005532 69 42 2.0 5.0 0.00 0.00 0.00 83 1015.3
20260505005034 70 38 3.0 5.0 0.00 0.00 0.00 82 1015.2
20260505004559 70 44 2.0 5.0 0.00 0.00 0.00 82 1015.3
20260505004036 70 42 3.0 6.0 0.00 0.00 0.00 82 1015.3
20260505003534 71 20 3.0 6.0 0.00 0.00 0.00 82 1015.4
20260505003045 71 54 3.0 8.0 0.00 0.00 0.00 81 1015.2
20260505002533 71 28 3.0 8.0 0.00 0.00 0.00 81 1015.1
20260505002031 71 41 4.0 8.0 0.00 0.00 0.00 81 1015.1
20260505001549 71 28 4.0 8.0 0.00 0.00 0.00 81 1015.3
20260505001037 71 34 4.0 9.0 0.00 0.00 0.00 81 1015.1
20260505000531 71 53 5.0 11.0 0.00 0.00 0.00 81 1014.9
20260505000047 72 39 5.0 11.0 0.00 0.00 0.00 80 1014.9
20260504235535 72 32 5.0 11.0 0.00 0.00 0.00 80 1014.9
20260504235034 72 41 5.0 11.0 0.00 0.00 0.00 80 1014.8
20260504234545 72 73 7.0 11.0 0.00 0.00 0.00 80 1014.7
20260504234035 72 53 6.0 10.0 0.00 0.00 0.00 80 1014.5
20260504233533 72 5 6.0 10.0 0.00 0.00 0.00 80 1014.5
20260504233044 72 38 5.0 12.0 0.00 0.00 0.00 80 1014.6
20260504232532 72 34 8.0 13.0 0.00 0.00 0.00 80 1014.6
20260504232031 72 56 8.0 13.0 0.00 0.00 0.00 80 1014.4
20260504231608 72 40 7.0 13.0 0.00 0.00 0.00 80 1014.4
20260504231034 72 67 7.0 13.0 0.00 0.00 0.00 80 1014.4
20260504230534 72 28 8.0 14.0 0.00 0.00 0.00 80 1014.5
20260504230049 72 51 7.0 15.0 0.00 0.00 0.00 80 1014.5
20260504225534 72 44 9.0 15.0 0.00 0.00 0.00 80 1014.5
20260504225030 72 23 9.0 14.0 0.00 0.00 0.00 80 1014.5
20260504224545 72 342 7.0 13.0 0.00 0.00 0.00 80 1014.5
20260504224037 72 13 8.0 14.0 0.00 0.00 0.00 81 1014.4
20260504223534 72 37 8.0 14.0 0.00 0.00 0.00 81 1014.6
20260504223046 72 40 8.0 13.0 0.00 0.00 0.00 81 1014.7
20260504222533 72 45 8.0 17.0 0.00 0.00 0.00 81 1014.6
20260504222035 72 22 10.0 18.0 0.00 0.00 0.00 80 1014.6
20260504221618 72 55 11.0 20.0 0.00 0.00 0.00 80 1014.7
20260504221033 73 53 11.0 20.0 0.00 0.00 0.00 79 1014.7
20260504220533 73 57 12.0 18.0 0.00 0.00 0.00 78 1014.5
20260504220045 74 30 10.0 17.0 0.00 0.00 0.00 77 1014.5
20260504215531 74 25 10.0 17.0 0.00 0.00 0.00 76 1014.6
20260504215032 74 45 9.0 19.0 0.00 0.00 0.00 77 1014.6
20260504214544 74 49 12.0 19.0 0.00 0.00 0.00 76 1014.6
20260504214033 74 69 7.0 17.0 0.00 0.00 0.00 75 1014.7
20260504213534 74 38 11.0 17.0 0.00 0.00 0.00 75 1014.7
20260504213046 74 59 10.0 17.0 0.00 0.00 0.00 75 1014.8
20260504212534 74 35 10.0 18.0 0.00 0.00 0.00 75 1014.8
20260504212032 74 53 12.0 18.0 0.00 0.00 0.00 74 1014.7
20260504211548 75 38 13.0 18.0 0.00 0.00 0.00 74 1014.7
20260504211034 75 28 11.0 20.0 0.00 0.00 0.00 75 1014.7
20260504210534 75 32 11.0 20.0 0.00 0.00 0.00 74 1014.8
20260504210049 74 36 13.0 19.0 0.00 0.00 0.00 75 1014.7
20260504205533 74 41 12.0 18.0 0.00 0.00 0.00 75 1014.7
20260504205034 74 41 13.0 19.0 0.00 0.00 0.00 74 1014.6